Location: Sternwarte_Laufen
(47.9344°N, 12.9346°E)
Time: 06:39:53
(UTC+01:00)

BlueWalker 3 - Pass Details

Date: 08 February 2023
Orbit: 497 x 515 km, 53.2° (Epoch: 23 March)

Event Time Altitude Azimuth Distance (km) Brightness Sun altitude
Rises 19:36:11 0° 297° (WNW) 2,608 6.7 -23.3°
Reaches altitude 10° 19:38:24 10° 293° (WNW) 1,724 5.6 -23.7°
Enters shadow 19:41:55 57° 239° (WSW) 603 2.4 -24.3°
